Showing default

SIRIUS XM-9, 62259

Orbit data source: Space-Track

SIRIUS XM-9, 62259 is a payload satellite owned by Sirius XM (US) in GEO that was launched on Thu, 05 Dec 2024 UTC via an FALCON 9 launch vehicle from the Air Force Eastern Test Range (AFETR). Payload-class satellites include a variety of spacecraft equipped with specific instruments for various scientific and technological missions. These include communications satellites like Starlink; space stations such as the ISS; scientific satellites like the Hubble; Earth observation satellites from companies like Planet Labs, Umbra, and HawkEye 360; GPS; miniature CubeSats for education and research; and military/defense satellites.

Loading next visibility...
Identifier
62259, 2024-234A
Orbit
GEO
Last TLE update
2 days ago
Origin
Manufacturer
Maxar Space Sol
Mission
Operational Commercial Communications
Bus & Motor
LS-1300, R-4D
Mass
~7,000 kg wet, ~2,884 kg dry
Launch date (UTC)
2024-12-05 (5 months ago)
Launch vehicle
FALCON 9
Launch site
Air Force Eastern Test Range (AFETR)
Object type
Payload
Rocket body
Debris
Shape & HBR
Box + 2 Pan, 30 m
Radar Cross Section
98.149 m², Large (>1 m²)

Expand to show TLE details & history

TLE from 2 days ago
0 SIRIUS XM-9
1 62259U 24234A   25118.36963459 -.00000204  00000-0  00000-0 0  9998
2 62259   0.0219 303.9452 0004718   9.1999 311.3338  1.00269955  1427
Epoch: 2025-04-28T08:52Z
Definitive object data (Epoch: 2025-04-28T08:52:16.428Z)
Latitude
-0.01321°
Longitude
-85.22062°
Altitude
35,773.555 km
Speed
3.076 km/s
True Right ascension
17h 37m 43s
True Declination
0° 00' 47"
Sunlit
Object was in daylight at TLE epoch
Visualization TLE readout
Latitude
0.00119°
Longitude
-58.3597°
Altitude
35,768.366 km
Speed
3.076 km/s
Apparent Right ascension
19h 35m 21s
Apparent Declination
-6° 10' 53"
Sunlit
Object is in daylight
Visualization observer readout
Local Sidereal Time
18:05:32
Azimuth
150.538° SSE
Elevation
39.466°
Doppler factor
1
Orbital elements
Apogee altitude
35,808.072 km
Perigee altitude
35,768.284 km
Semi-major axis
42,166.315 km
Eccentricity
0.0004718
Inclination
0.0219°
RAAN
303.9452°
Arg. of periapsis
9.1999°
True anomaly
311.29319°
Mean anomaly
311.3338°
Eccentric anomaly
311.3135°
Mean motion
0.25067 °/min
BSTAR
Unknown
Orbital period
1436.18 mins
Loading historical data...
62259 neighbors
Loading maneuver chart data...
Loading SW <> Apogee altitude chart data...
Loading historical data...
Loading historical data...
Loading historical data...
Loading historical data...
Loading historical data...
Loading historical data...
Loading historical data...
Other satellites on launch #234 in the year 2024 (2024-12-05 UTC)

SIRIUS XM-9 Visibility forecast

Observer location: undefined°, undefined°

Span
Click to sort rows by Start time (UTC) header in descending order
Start Az.
Max El. time (UTC)
Max El. Az.
Max El.
End time (UTC)
End Az.
1440 mins2025-04-30 10:31:30.925Z150.548° SSE2025-04-30 16:42:30.925Z150.436° SSE32.438°2025-05-01 10:31:30.925Z150.554° SSE
|